Location: Krasnoyarskiy Pitomnik
(51.1333°N, 71.6167°E)
Time: 18:37:55
(UTC+00:00)

Vanguard 1 Rocket - Visible Passes

Search period start: 23 April 2024 00:00
Search period end: 03 May 2024 00:00
Orbit: 652 x 4219 km, 34.3° (Epoch: 22 April)

Date Brightness Start Highest point End Pass type
(mag) Time Alt. Az. Time Alt. Az. Time Alt. Az.
23 Apr 9.3 15:37:22 10° SW 15:41:49 20° S 15:46:26 14° SE visible
23 Apr 10.0 18:01:48 10° SW 18:03:38 13° SW 18:03:38 13° SW visible
24 Apr 9.6 16:50:14 10° SW 16:54:47 17° S 16:55:32 17° S visible
25 Apr 9.3 15:39:15 10° SW 15:43:08 17° S 15:47:28 12° SSE visible
26 Apr 9.8 16:52:56 10° SW 16:56:06 13° SSW 16:56:36 13° S visible
27 Apr 9.5 15:41:28 10° SW 15:44:27 14° S 15:48:10 10° SSE visible
29 Apr 9.7 15:45:05 10° SSW 15:45:46 10° S 15:46:30 10° S visible
